AT627 Weather Reports


Display with metric or nautical units.
time (UTC)temp
F
wind
direction
speed
MPH
gust
MPH
rain 1hr
in
rain 24hr
in
rain mn
in
humidity
%
barometer
mb
20260506182431 60 204 3.0 6.0 0.00 0.20 0.20 92 982.4
20260506182213 60 122 3.0 7.0 0.00 0.20 0.20 92 982.5
20260506181430 60 326 3.0 7.0 0.00 0.20 0.20 92 982.6
20260506180930 60 202 2.0 6.0 0.00 0.20 0.20 92 982.7
20260506180432 60 247 3.0 8.0 0.00 0.20 0.20 92 982.7
20260506175931 60 260 3.0 8.0 0.00 0.20 0.20 92 982.8
20260506175431 60 241 3.0 8.0 0.00 0.20 0.20 92 982.8
20260506174931 60 138 3.0 8.0 0.00 0.20 0.20 92 982.8
20260506174430 60 234 3.0 6.0 0.00 0.20 0.20 92 982.7
20260506173930 60 171 3.0 6.0 0.00 0.20 0.20 92 982.7
20260506173431 60 243 3.0 6.0 0.00 0.20 0.20 91 982.7
20260506173220 60 207 3.0 7.0 0.00 0.20 0.20 91 982.7
20260506172431 60 335 3.0 7.0 0.00 0.20 0.20 91 982.7
20260506171931 60 223 3.0 7.0 0.00 0.20 0.20 91 982.6
20260506171431 60 215 3.0 9.0 0.00 0.20 0.20 92 982.6
20260506171340 60 194 4.0 10.0 0.00 0.20 0.20 92 982.6
20260506171336 60 170 3.0 8.0 0.01 0.20 0.20 92 982.7
20260506171331 60 190 4.0 10.0 0.00 0.20 0.20 92 982.6
20260506165431 59 197 4.0 8.0 0.01 0.20 0.20 92 982.7
20260506164930 59 273 3.0 8.0 0.02 0.20 0.20 92 982.7
20260506164510 59 168 3.0 8.0 0.02 0.20 0.20 92 982.9
20260506164458 59 17 3.0 8.0 0.02 0.20 0.20 92 982.8
20260506163431 59 218 3.0 7.0 0.04 0.20 0.20 92 982.8
20260506162931 59 144 4.0 10.0 0.04 0.20 0.19 92 982.7
20260506162430 59 194 5.0 10.0 0.04 0.19 0.19 92 982.9
20260506161930 59 207 5.0 11.0 0.05 0.19 0.19 92 982.8
20260506161430 59 195 5.0 11.0 0.06 0.19 0.19 92 982.6
20260506161226 59 89 4.0 9.0 0.06 0.19 0.19 93 982.6
20260506160430 59 225 4.0 8.0 0.07 0.19 0.19 93 982.5
20260506160216 59 272 3.0 9.0 0.07 0.19 0.19 92 982.6
20260506155429 59 213 4.0 9.0 0.09 0.19 0.19 92 982.8
20260506154931 59 177 4.0 8.0 0.10 0.18 0.18 92 983.2
20260506154430 59 227 3.0 8.0 0.11 0.18 0.18 92 983.4
20260506154220 59 215 3.0 7.0 0.10 0.17 0.17 92 983.5
20260506153511 59 220 4.0 8.0 0.09 0.16 0.15 92 983.7
20260506153457 59 306 4.0 8.0 0.09 0.16 0.16 92 983.6
20260506152429 59 223 4.0 7.0 0.09 0.15 0.15 92 983.6
20260506151929 59 168 3.0 7.0 0.08 0.14 0.14 92 983.7
20260506151429 59 256 2.0 10.0 0.08 0.13 0.13 92 983.8
20260506151206 60 202 2.0 10.0 0.09 0.13 0.13 92 983.8
20260506150428 60 324 3.0 10.0 0.09 0.13 0.12 92 983.9
20260506145928 60 213 2.0 6.0 0.08 0.11 0.11 91 983.9
20260506145433 60 207 3.0 10.0 0.07 0.09 0.09 91 983.7
20260506144929 60 278 4.0 10.0 0.06 0.08 0.08 90 983.6
20260506144429 60 171 4.0 9.0 0.06 0.07 0.07 91 983.6
20260506143928 60 195 4.0 9.0 0.06 0.07 0.07 90 983.5
20260506143429 60 205 4.0 9.0 0.06 0.07 0.06 90 983.7
20260506142929 60 189 4.0 8.0 0.05 0.06 0.06 90 983.6
20260506142428 60 166 3.0 10.0 0.05 0.06 0.06 90 983.7
20260506141929 60 231 3.0 10.0 0.05 0.06 0.06 89 983.6
20260506141429 60 187 3.0 8.0 0.04 0.05 0.05 89 983.6
20260506140929 60 145 3.0 8.0 0.04 0.05 0.05 88 983.7
20260506140429 61 267 3.0 8.0 0.03 0.04 0.04 87 983.6
20260506135929 61 196 3.0 8.0 0.02 0.03 0.03 86 983.6
20260506135429 61 186 3.0 8.0 0.02 0.02 0.02 86 983.7
20260506135204 61 209 2.0 5.0 0.02 0.02 0.02 85 983.7
20260506134429 61 176 2.0 6.0 0.01 0.02 0.02 84 983.6
20260506134212 62 218 2.0 6.0 0.01 0.02 0.02 84 983.6
20260506133428 62 189 2.0 5.0 0.01 0.01 0.01 83 983.6
20260506132929 62 332 3.0 9.0 0.01 0.01 0.01 83 983.5
20260506132713 62 288 3.0 9.0 0.01 0.01 0.01 82 983.5
20260506131929 62 308 3.0 9.0 0.01 0.01 0.01 83 983.6
20260506131428 62 283 2.0 7.0 0.01 0.01 0.01 83 983.8
20260506130930 62 280 3.0 8.0 0.01 0.01 0.01 83 983.7
20260506130715 62 288 4.0 8.0 0.01 0.01 0.01 81 983.7
20260506125930 62 207 4.0 7.0 0.01 0.01 0.01 81 983.7
20260506125428 62 295 3.0 7.0 0.01 0.01 0.00 80 983.8
20260506124930 62 210 3.0 7.0 0.00 0.00 0.00 81 983.8
20260506124429 62 156 3.0 7.0 0.00 0.00 0.00 80 983.9
20260506123930 63 191 3.0 7.0 0.00 0.00 0.00 80 984.0
20260506123429 63 253 3.0 7.0 0.00 0.00 0.00 79 984.0
20260506122930 63 189 3.0 7.0 0.00 0.00 0.00 79 984.1
20260506122429 63 218 3.0 7.0 0.00 0.00 0.00 79 983.9
20260506121930 63 210 3.0 7.0 0.00 0.00 0.00 78 983.7
20260506121429 63 205 4.0 7.0 0.00 0.00 0.00 79 983.8
20260506120929 63 307 4.0 9.0 0.00 0.00 0.00 78 983.9
20260506120428 63 182 3.0 9.0 0.00 0.00 0.00 78 983.8
20260506120219 63 279 3.0 7.0 0.00 0.00 0.00 78 983.6
20260506115720 63 209 4.0 7.0 0.00 0.00 0.00 78 983.6
20260506114928 63 4 4.0 7.0 0.00 0.00 0.00 77 983.5
20260506114429 63 298 3.0 9.0 0.00 0.00 0.00 78 983.6
20260506113928 63 193 4.0 9.0 0.00 0.00 0.00 78 983.5
20260506113429 63 156 4.0 9.0 0.00 0.00 0.00 78 983.5
20260506112929 63 203 4.0 9.0 0.00 0.00 0.00 78 983.5
20260506112719 63 226 3.0 6.0 0.00 0.00 0.00 78 983.4
20260506111929 63 58 3.0 5.0 0.00 0.00 0.00 78 983.5
20260506111417 63 171 3.0 7.0 0.00 0.00 0.00 78 983.5
20260506110918 63 316 3.0 7.0 0.00 0.00 0.00 78 983.5
20260506110417 63 175 3.0 6.0 0.00 0.00 0.00 78 983.4
20260506105916 63 246 2.0 7.0 0.00 0.00 0.00 78 983.4
20260506105406 63 182 3.0 9.0 0.00 0.00 0.00 78 983.4
20260506104907 63 293 4.0 9.0 0.00 0.00 0.00 78 983.5
20260506104655 63 288 3.0 7.0 0.00 0.00 0.00 78 983.3
20260506103907 63 257 4.0 9.0 0.00 0.00 0.00 78 983.3
20260506103407 63 206 4.0 9.0 0.00 0.00 0.00 78 983.2
20260506102903 63 147 4.0 9.0 0.00 0.00 0.00 78 983.3
20260506102443 63 183 4.0 7.0 0.00 0.00 0.00 78 983.2
20260506102431 63 222 4.0 9.0 0.00 0.00 0.00 78 983.2
20260506101651 63 260 3.0 7.0 0.00 0.00 0.00 78 983.2
20260506100902 63 259 3.0 6.0 0.00 0.00 0.00 78 983.2
20260506100402 63 195 3.0 8.0 0.00 0.00 0.00 78 983.2
20260506095902 63 174 3.0 8.0 0.00 0.00 0.00 78 983.2
20260506095401 63 163 3.0 7.0 0.00 0.00 0.00 77 983.1
20260506094903 64 219 4.0 7.0 0.00 0.00 0.00 77 983.2
20260506094402 64 193 4.0 6.0 0.00 0.00 0.00 77 983.2
20260506094150 64 166 4.0 6.0 0.00 0.00 0.00 76 983.2
20260506093402 64 197 3.0 6.0 0.00 0.00 0.00 76 983.2
20260506092902 64 160 2.0 6.0 0.00 0.00 0.00 76 983.1
20260506092401 64 174 3.0 7.0 0.00 0.00 0.00 75 983.2
20260506092143 64 210 4.0 8.0 0.00 0.00 0.00 75 983.3
20260506091401 64 286 4.0 8.0 0.00 0.00 0.00 74 983.2
20260506090905 64 176 3.0 7.0 0.00 0.00 0.00 74 983.2
20260506090406 64 118 2.0 6.0 0.00 0.00 0.00 74 983.2
20260506085941 65 243 3.0 8.0 0.00 0.00 0.00 74 983.3
20260506085929 65 192 3.0 8.0 0.00 0.00 0.00 74 983.2
20260506084902 65 187 3.0 7.0 0.00 0.00 0.00 73 983.3
20260506084401 65 210 3.0 8.0 0.00 0.00 0.00 73 983.2
20260506084141 65 218 3.0 8.0 0.00 0.00 0.00 73 983.2
20260506083400 65 272 4.0 9.0 0.00 0.00 0.00 73 983.1
20260506083146 65 194 4.0 9.0 0.00 0.00 0.00 72 983.2
20260506082401 66 199 4.0 7.0 0.00 0.00 0.00 72 983.2
20260506081902 66 134 4.0 10.0 0.00 0.00 0.00 72 983.1
20260506081402 66 181 5.0 10.0 0.00 0.00 0.00 72 983.1
20260506080902 66 202 5.0 10.0 0.00 0.00 0.00 71 983.2
20260506080402 66 201 5.0 10.0 0.00 0.00 0.00 71 983.3
20260506073401 66 184 4.0 11.0 0.00 0.00 0.00 71 983.3
20260506072902 66 184 4.0 11.0 0.00 0.00 0.00 70 983.3
20260506072401 66 197 3.0 7.0 0.00 0.00 0.00 70 983.4
20260506071902 66 167 3.0 7.0 0.00 0.00 0.00 70 983.4
20260506071401 66 191 3.0 8.0 0.00 0.00 0.00 70 983.5
20260506070901 66 195 3.0 8.0 0.00 0.00 0.00 70 983.6
20260506070646 66 170 3.0 8.0 0.00 0.00 0.00 70 983.6
20260506070147 66 137 3.0 8.0 0.00 0.00 0.00 69 983.7
20260506062349 66 185 2.0 5.0 0.00 0.00 0.00 67 984.0
20260506061835 66 241 2.0 5.0 0.00 0.00 0.00 67 984.0
20260506061333 67 140 3.0 10.0 0.00 0.00 0.00 67 984.1
20260506060830 67 164 4.0 10.0 0.00 0.00 0.00 66 984.1
20260506060330 67 192 4.0 9.0 0.00 0.00 0.00 66 984.0
20260506060122 67 170 4.0 9.0 0.00 0.00 0.00 65 984.1
20260506051328 67 222 4.0 10.0 0.00 0.00 0.00 63 984.3
20260506051118 67 191 4.0 9.0 0.00 0.00 0.00 63 984.3
20260506050329 67 157 5.0 12.0 0.00 0.00 0.00 62 984.4
20260506050130 68 269 5.0 12.0 0.00 0.00 0.00 62 984.3
20260506044830 68 176 5.0 11.0 0.00 0.00 0.00 61 984.4
20260506044330 68 205 5.0 12.0 0.00 0.00 0.00 61 984.4
20260506043830 68 303 4.0 12.0 0.00 0.00 0.00 60 984.4
20260506043330 68 274 5.0 11.0 0.00 0.00 0.00 60 984.4
20260506042829 68 293 6.0 12.0 0.00 0.00 0.00 60 984.4
20260506042330 68 215 5.0 12.0 0.00 0.00 0.00 60 984.4
20260506041829 68 157 4.0 11.0 0.00 0.00 0.00 60 984.5
20260506041329 68 198 4.0 10.0 0.00 0.00 0.00 60 984.4
20260506040830 68 271 5.0 10.0 0.00 0.00 0.00 60 984.5
20260506040330 68 156 5.0 11.0 0.00 0.00 0.00 59 984.5
20260506040119 68 166 4.0 11.0 0.00 0.00 0.00 59 984.4
20260506035620 68 217 5.0 11.0 0.00 0.00 0.00 60 984.4
20260506034830 68 263 5.0 11.0 0.00 0.00 0.00 59 984.4
20260506034326 68 259 5.0 12.0 0.00 0.00 0.00 59 984.4
20260506033826 68 177 6.0 12.0 0.00 0.00 0.00 59 984.3
20260506033327 68 186 5.0 11.0 0.00 0.00 0.00 59 984.2
20260506032828 68 159 4.0 13.0 0.00 0.00 0.00 60 984.4
20260506032328 68 274 4.0 13.0 0.00 0.00 0.00 59 984.4
20260506032119 68 254 4.0 9.0 0.00 0.00 0.00 59 984.3
20260506031328 68 302 4.0 10.0 0.00 0.00 0.00 59 984.4
20260506030828 68 144 5.0 10.0 0.00 0.00 0.00 58 984.3
20260506030619 69 298 4.0 9.0 0.00 0.00 0.00 58 984.4
20260506025829 69 223 4.0 9.0 0.00 0.00 0.00 58 984.4
20260506025412 69 199 5.0 11.0 0.00 0.00 0.00 57 984.3
20260506025352 69 215 5.0 9.0 0.00 0.00 0.00 57 984.3
20260506024617 69 168 4.0 11.0 0.00 0.00 0.00 56 984.3
20260506023825 69 244 4.0 11.0 0.00 0.00 0.00 56 984.3
20260506023616 69 219 4.0 11.0 0.00 0.00 0.00 56 984.4
20260506022825 69 301 4.0 9.0 0.00 0.00 0.00 55 984.4
20260506022325 69 154 4.0 11.0 0.00 0.00 0.00 55 984.3
20260506021825 70 249 5.0 11.0 0.00 0.00 0.00 55 984.4
20260506021325 70 199 4.0 9.0 0.00 0.00 0.00 55 984.4
20260506021114 70 174 4.0 8.0 0.00 0.00 0.00 55 984.4
20260506020326 70 303 4.0 9.0 0.00 0.00 0.00 55 984.4
20260506015825 70 188 4.0 9.0 0.00 0.00 0.00 54 984.4
20260506015615 70 205 4.0 10.0 0.00 0.00 0.00 55 984.4
20260506014820 70 239 3.0 10.0 0.00 0.00 0.00 54 984.2
20260506014323 70 178 3.0 9.0 0.00 0.00 0.00 54 984.2
20260506013821 70 199 4.0 9.0 0.00 0.00 0.00 53 984.2
20260506013320 71 220 4.0 9.0 0.00 0.00 0.00 52 984.2
20260506012820 71 181 4.0 8.0 0.00 0.00 0.00 52 984.1
20260506012606 71 231 4.0 9.0 0.00 0.00 0.00 52 984.1
20260506011820 71 207 3.0 9.0 0.00 0.00 0.00 52 984.0
20260506011320 71 207 4.0 8.0 0.00 0.00 0.00 51 983.9
20260506010820 71 210 4.0 8.0 0.00 0.00 0.00 50 983.9
20260506010320 71 161 4.0 12.0 0.00 0.00 0.00 51 983.8
20260506005821 72 162 5.0 12.0 0.00 0.00 0.00 49 983.8
20260506005318 72 219 4.0 12.0 0.00 0.00 0.00 49 983.7
20260506004815 72 216 4.0 10.0 0.00 0.00 0.00 49 983.6
20260506004603 72 196 5.0 11.0 0.00 0.00 0.00 48 983.6
20260506004141 73 220 5.0 10.0 0.00 0.00 0.00 47 983.6
20260506003843 72 222 6.0 11.0 0.00 0.00 0.00 48 983.6
20260506002816 73 221 4.0 9.0 0.00 0.00 0.00 48 983.6
20260506002316 73 219 4.0 8.0 0.00 0.00 0.00 47 983.6
20260506001816 73 226 3.0 6.0 0.00 0.00 0.00 48 983.6
20260506001355 73 223 4.0 11.0 0.00 0.00 0.00 46 983.4
20260506001341 73 223 4.0 11.0 0.00 0.00 0.00 46 983.5
20260506000316 74 224 4.0 10.0 0.00 0.00 0.00 45 983.4
20260505235812 74 222 4.0 8.0 0.00 0.00 0.00 45 983.3
20260505235312 74 220 3.0 8.0 0.00 0.00 0.00 44 983.2
20260505234813 74 220 4.0 8.0 0.00 0.00 0.00 44 983.3
20260505234312 74 222 4.0 9.0 0.00 0.00 0.00 44 983.2
20260505233851 74 213 6.0 11.0 0.00 0.00 0.00 44 983.1
20260505233838 74 224 5.0 9.0 0.00 0.00 0.00 44 983.2
20260505232813 74 219 5.0 11.0 0.00 0.00 0.00 45 983.1
20260505232313 75 221 5.0 14.0 0.00 0.00 0.00 44 983.1
20260505231813 75 224 5.0 14.0 0.00 0.00 0.00 44 983.0
20260505231313 75 223 5.0 11.0 0.00 0.00 0.00 44 983.2
20260505230813 75 217 6.0 11.0 0.00 0.00 0.00 43 983.2
20260505230313 75 217 6.0 11.0 0.00 0.00 0.00 43 983.2
20260505225811 75 222 6.0 11.0 0.00 0.00 0.00 44 983.2
20260505225556 76 219 6.0 14.0 0.00 0.00 0.00 45 983.1
20260505224811 76 212 7.0 14.0 0.00 0.00 0.00 43 983.2
20260505224311 76 223 6.0 12.0 0.00 0.00 0.00 43 983.1
20260505224055 76 218 7.0 12.0 0.00 0.00 0.00 44 983.0
20260505223552 76 218 8.0 13.0 0.00 0.00 0.00 43 983.0
20260505222808 77 217 7.0 17.0 0.00 0.00 0.00 43 983.1
20260505222308 77 221 6.0 17.0 0.00 0.00 0.00 43 983.1
20260505221809 77 190 6.0 11.0 0.00 0.00 0.00 42 983.1
20260505221555 77 184 5.0 10.0 0.00 0.00 0.00 42 983.1
20260505220808 77 230 6.0 11.0 0.00 0.00 0.00 41 983.1
20260505220556 77 67 7.0 12.0 0.00 0.00 0.00 41 983.0
20260505215808 77 209 7.0 13.0 0.00 0.00 0.00 41 983.0
20260505215310 78 211 8.0 21.0 0.00 0.00 0.00 40 983.0
20260505214809 78 198 8.0 21.0 0.00 0.00 0.00 40 982.9
20260505214309 78 221 8.0 14.0 0.00 0.00 0.00 39 982.9
20260505214054 78 211 7.0 17.0 0.00 0.00 0.00 38 982.9
20260505213310 79 242 7.0 17.0 0.00 0.00 0.00 38 982.7
20260505212810 79 221 6.0 22.0 0.00 0.00 0.00 38 982.7
20260505212310 79 228 5.0 22.0 0.00 0.00 0.00 41 982.7
20260505211810 78 212 6.0 15.0 0.00 0.00 0.00 40 982.8
20260505211352 78 301 7.0 15.0 0.00 0.00 0.00 37 982.6
20260505211338 78 203 7.0 15.0 0.00 0.00 0.00 38 982.8
20260505210310 78 228 7.0 15.0 0.00 0.00 0.00 36 982.9
20260505205807 78 235 6.0 15.0 0.00 0.00 0.00 38 982.8
20260505205306 78 214 5.0 20.0 0.00 0.00 0.00 37 982.8
20260505204807 78 225 6.0 20.0 0.00 0.00 0.00 38 982.7
20260505204307 78 86 6.0 13.0 0.00 0.00 0.00 37 982.8
20260505203847 78 91 5.0 16.0 0.00 0.00 0.00 38 982.7
20260505203833 78 176 6.0 16.0 0.00 0.00 0.00 37 982.9
20260505202807 79 130 5.0 16.0 0.00 0.00 0.00 37 982.8
20260505202307 79 192 5.0 16.0 0.00 0.00 0.00 37 983.0
20260505202057 79 241 5.0 13.0 0.00 0.00 0.00 39 982.9
20260505201307 78 216 6.0 19.0 0.00 0.00 0.00 38 983.0
20260505201057 78 225 6.0 19.0 0.00 0.00 0.00 38 983.0
20260505200307 78 224 5.0 12.0 0.00 0.00 0.00 39 983.2
20260505195808 78 241 6.0 16.0 0.00 0.00 0.00 39 983.0
20260505195556 78 215 5.0 16.0 0.00 0.00 0.00 38 983.2
20260505194806 78 234 4.0 10.0 0.00 0.00 0.00 38 983.1
20260505194306 78 224 4.0 10.0 0.00 0.00 0.00 41 983.1
20260505193807 78 227 4.0 10.0 0.00 0.00 0.00 41 983.1
20260505193306 78 216 4.0 6.0 0.00 0.00 0.00 41 983.1
20260505192806 78 224 4.0 6.0 0.00 0.00 0.00 42 983.2
20260505192306 78 223 4.0 8.0 0.00 0.00 0.00 41 983.3
20260505191807 79 224 4.0 9.0 0.00 0.00 0.00 44 983.5
20260505191306 79 215 5.0 13.0 0.00 0.00 0.00 39 983.4
20260505190806 79 218 8.0 15.0 0.00 0.00 0.00 39 983.4
20260505190638 78 218 9.0 14.0 0.00 0.00 0.00 40 983.6
20260505190332 79 225 10.0 15.0 0.00 0.00 0.00 39 983.5
20260505185305 78 210 9.0 14.0 0.00 0.00 0.00 40 983.6
20260505184803 78 226 7.0 14.0 0.00 0.00 0.00 42 983.7
20260505184304 78 223 5.0 9.0 0.00 0.00 0.00 40 983.8
20260505183803 78 221 5.0 14.0 0.00 0.00 0.00 41 983.8
20260505183303 78 221 7.0 23.0 0.00 0.00 0.00 42 983.9